Year,Month,Day,Hour,Minute,Value (Times are PST for insolation in W/m^2)
2016,11,13,00,00,0.00
2016,11,13,00,01,0.00
2016,11,13,00,02,0.00
2016,11,13,00,03,0.00
2016,11,13,00,04,0.00
2016,11,13,00,05,0.00
2016,11,13,00,06,0.00
2016,11,13,00,07,0.00
2016,11,13,00,08,0.00
2016,11,13,00,09,0.00
2016,11,13,00,10,0.00
2016,11,13,00,11,0.00
2016,11,13,00,12,0.00
2016,11,13,00,13,0.00
2016,11,13,00,14,0.00
2016,11,13,00,15,0.00
2016,11,13,00,16,0.00
2016,11,13,00,17,0.00
2016,11,13,00,18,0.00
2016,11,13,00,19,0.00
2016,11,13,00,20,0.00
2016,11,13,00,21,0.00
2016,11,13,00,22,0.00
2016,11,13,00,23,0.00
2016,11,13,00,24,0.00
2016,11,13,00,25,0.00
2016,11,13,00,26,0.00
2016,11,13,00,27,0.00
2016,11,13,00,28,0.00
2016,11,13,00,29,0.00
2016,11,13,00,30,0.00
2016,11,13,00,31,0.00
2016,11,13,00,32,0.00
2016,11,13,00,33,0.00
2016,11,13,00,34,0.00
2016,11,13,00,35,0.00
2016,11,13,00,36,0.00
2016,11,13,00,37,0.00
2016,11,13,00,38,0.00
2016,11,13,00,39,0.00
2016,11,13,00,40,0.00
2016,11,13,00,41,0.00
2016,11,13,00,42,0.00
2016,11,13,00,43,0.00
2016,11,13,00,44,0.00
2016,11,13,00,45,0.00
2016,11,13,00,46,0.00
2016,11,13,00,47,0.00
2016,11,13,00,48,0.00
2016,11,13,00,49,0.00
2016,11,13,00,50,0.00
2016,11,13,00,51,0.00
2016,11,13,00,52,0.00
2016,11,13,00,53,0.00
2016,11,13,00,54,0.00
2016,11,13,00,55,0.00
2016,11,13,00,56,0.00
2016,11,13,00,57,0.00
2016,11,13,00,58,0.00
2016,11,13,00,59,0.00
2016,11,13,01,00,0.00
2016,11,13,01,01,0.00
2016,11,13,01,02,0.00
2016,11,13,01,03,0.00
2016,11,13,01,04,0.00
2016,11,13,01,05,0.00
2016,11,13,01,06,0.00
2016,11,13,01,07,0.00
2016,11,13,01,08,0.00
2016,11,13,01,09,0.00
2016,11,13,01,10,0.00
2016,11,13,01,11,0.00
2016,11,13,01,12,0.00
2016,11,13,01,13,0.00
2016,11,13,01,14,0.00
2016,11,13,01,15,0.00
2016,11,13,01,16,0.00
2016,11,13,01,17,0.00
2016,11,13,01,18,0.00
2016,11,13,01,19,0.00
2016,11,13,01,20,0.00
2016,11,13,01,21,0.00
2016,11,13,01,22,0.00
2016,11,13,01,23,0.00
2016,11,13,01,24,0.00
2016,11,13,01,25,0.00
2016,11,13,01,26,0.00
2016,11,13,01,27,0.00
2016,11,13,01,28,0.00
2016,11,13,01,29,0.00
2016,11,13,01,30,0.00
2016,11,13,01,31,0.00
2016,11,13,01,32,0.00
2016,11,13,01,33,0.00
2016,11,13,01,34,0.00
2016,11,13,01,35,0.00
2016,11,13,01,36,0.00
2016,11,13,01,37,0.00
2016,11,13,01,38,0.00
2016,11,13,01,39,0.00
2016,11,13,01,40,0.00
2016,11,13,01,41,0.00
2016,11,13,01,42,0.00
2016,11,13,01,43,0.00
2016,11,13,01,44,0.00
2016,11,13,01,45,0.00
2016,11,13,01,46,0.00
2016,11,13,01,47,0.00
2016,11,13,01,48,0.00
2016,11,13,01,49,0.00
2016,11,13,01,50,0.00
2016,11,13,01,51,0.00
2016,11,13,01,52,0.00
2016,11,13,01,53,0.00
2016,11,13,01,54,0.00
2016,11,13,01,55,0.00
2016,11,13,01,56,0.00
2016,11,13,01,57,0.00
2016,11,13,01,58,0.00
2016,11,13,01,59,0.00
2016,11,13,02,00,0.00
2016,11,13,02,01,0.00
2016,11,13,02,02,0.00
2016,11,13,02,03,0.00
2016,11,13,02,04,0.00
2016,11,13,02,05,0.00
2016,11,13,02,06,0.00
2016,11,13,02,07,0.00
2016,11,13,02,08,0.00
2016,11,13,02,09,0.00
2016,11,13,02,10,0.00
2016,11,13,02,11,0.00
2016,11,13,02,12,0.00
2016,11,13,02,13,0.00
2016,11,13,02,14,0.00
2016,11,13,02,15,0.00
2016,11,13,02,16,0.00
2016,11,13,02,17,0.00
2016,11,13,02,18,0.00
2016,11,13,02,19,0.00
2016,11,13,02,20,0.00
2016,11,13,02,21,0.00
2016,11,13,02,22,0.00
2016,11,13,02,23,0.00
2016,11,13,02,24,0.00
2016,11,13,02,25,0.00
2016,11,13,02,26,0.00
2016,11,13,02,27,0.00
2016,11,13,02,28,0.00
2016,11,13,02,29,0.00
2016,11,13,02,30,0.00
2016,11,13,02,31,0.00
2016,11,13,02,32,0.00
2016,11,13,02,33,0.00
2016,11,13,02,34,0.00
2016,11,13,02,35,0.00
2016,11,13,02,36,0.00
2016,11,13,02,37,0.00
2016,11,13,02,38,0.00
2016,11,13,02,39,0.00
2016,11,13,02,40,0.00
2016,11,13,02,41,0.00
2016,11,13,02,42,0.00
2016,11,13,02,43,0.00
2016,11,13,02,44,0.00
2016,11,13,02,45,0.00
2016,11,13,02,46,0.00
2016,11,13,02,47,0.00
2016,11,13,02,48,0.00
2016,11,13,02,49,0.00
2016,11,13,02,50,0.00
2016,11,13,02,51,0.00
2016,11,13,02,52,0.00
2016,11,13,02,53,0.00
2016,11,13,02,54,0.00
2016,11,13,02,55,0.00
2016,11,13,02,56,0.00
2016,11,13,02,57,0.00
2016,11,13,02,58,0.00
2016,11,13,02,59,0.00
2016,11,13,03,00,0.00
2016,11,13,03,01,0.00
2016,11,13,03,02,0.00
2016,11,13,03,03,0.00
2016,11,13,03,04,0.00
2016,11,13,03,05,0.00
2016,11,13,03,06,0.00
2016,11,13,03,07,0.00
2016,11,13,03,08,0.00
2016,11,13,03,09,0.00
2016,11,13,03,10,0.00
2016,11,13,03,11,0.00
2016,11,13,03,12,0.00
2016,11,13,03,13,0.00
2016,11,13,03,14,0.00
2016,11,13,03,15,0.00
2016,11,13,03,16,0.00
2016,11,13,03,17,0.00
2016,11,13,03,18,0.00
2016,11,13,03,19,0.00
2016,11,13,03,20,0.00
2016,11,13,03,21,0.00
2016,11,13,03,22,0.00
2016,11,13,03,23,0.00
2016,11,13,03,24,0.00
2016,11,13,03,25,0.00
2016,11,13,03,26,0.00
2016,11,13,03,27,0.00
2016,11,13,03,28,0.00
2016,11,13,03,29,0.00
2016,11,13,03,30,0.00
2016,11,13,03,31,0.00
2016,11,13,03,32,0.00
2016,11,13,03,33,0.00
2016,11,13,03,34,0.00
2016,11,13,03,35,0.00
2016,11,13,03,36,0.00
2016,11,13,03,37,0.00
2016,11,13,03,38,0.00
2016,11,13,03,39,0.00
2016,11,13,03,40,0.00
2016,11,13,03,41,0.00
2016,11,13,03,42,0.00
2016,11,13,03,43,0.00
2016,11,13,03,44,0.00
2016,11,13,03,45,0.00
2016,11,13,03,46,0.00
2016,11,13,03,47,0.00
2016,11,13,03,48,0.00
2016,11,13,03,49,0.00
2016,11,13,03,50,0.00
2016,11,13,03,51,0.00
2016,11,13,03,52,0.00
2016,11,13,03,53,0.00
2016,11,13,03,54,0.00
2016,11,13,03,55,0.00
2016,11,13,03,56,0.00
2016,11,13,03,57,0.00
2016,11,13,03,58,0.00
2016,11,13,03,59,0.00
2016,11,13,04,00,0.00
2016,11,13,04,01,0.00
2016,11,13,04,02,0.00
2016,11,13,04,03,0.00
2016,11,13,04,04,0.00
2016,11,13,04,05,0.00
2016,11,13,04,06,0.00
2016,11,13,04,07,0.00
2016,11,13,04,08,0.00
2016,11,13,04,09,0.00
2016,11,13,04,10,0.00
2016,11,13,04,11,0.00
2016,11,13,04,12,0.00
2016,11,13,04,13,0.00
2016,11,13,04,14,0.00
2016,11,13,04,15,0.00
2016,11,13,04,16,0.00
2016,11,13,04,17,0.00
2016,11,13,04,18,0.00
2016,11,13,04,19,0.00
2016,11,13,04,20,0.00
2016,11,13,04,21,0.00
2016,11,13,04,22,0.00
2016,11,13,04,23,0.00
2016,11,13,04,24,0.00
2016,11,13,04,25,0.00
2016,11,13,04,26,0.00
2016,11,13,04,27,0.00
2016,11,13,04,28,0.00
2016,11,13,04,29,0.00
2016,11,13,04,30,0.00
2016,11,13,04,31,0.00
2016,11,13,04,32,0.00
2016,11,13,04,33,0.00
2016,11,13,04,34,0.00
2016,11,13,04,35,0.00
2016,11,13,04,36,0.00
2016,11,13,04,37,0.00
2016,11,13,04,38,0.00
2016,11,13,04,39,0.00
2016,11,13,04,40,0.00
2016,11,13,04,41,0.00
2016,11,13,04,42,0.00
2016,11,13,04,43,0.00
2016,11,13,04,44,0.00
2016,11,13,04,45,0.00
2016,11,13,04,46,0.00
2016,11,13,04,47,0.00
2016,11,13,04,48,0.00
2016,11,13,04,49,0.00
2016,11,13,04,50,0.00
2016,11,13,04,51,0.00
2016,11,13,04,52,0.00
2016,11,13,04,53,0.00
2016,11,13,04,54,0.00
2016,11,13,04,55,0.00
2016,11,13,04,56,0.00
2016,11,13,04,57,0.00
2016,11,13,04,58,0.00
2016,11,13,04,59,0.00
2016,11,13,05,00,0.00
2016,11,13,05,01,0.00
2016,11,13,05,02,0.00
2016,11,13,05,03,0.00
2016,11,13,05,04,0.00
2016,11,13,05,05,0.00
2016,11,13,05,06,0.00
2016,11,13,05,07,0.00
2016,11,13,05,08,0.00
2016,11,13,05,09,0.00
2016,11,13,05,10,0.00
2016,11,13,05,11,0.00
2016,11,13,05,12,0.00
2016,11,13,05,13,0.00
2016,11,13,05,14,0.00
2016,11,13,05,15,0.00
2016,11,13,05,16,0.00
2016,11,13,05,17,0.00
2016,11,13,05,18,0.00
2016,11,13,05,19,0.00
2016,11,13,05,20,0.00
2016,11,13,05,21,0.00
2016,11,13,05,22,0.00
2016,11,13,05,23,0.00
2016,11,13,05,24,0.00
2016,11,13,05,25,0.00
2016,11,13,05,26,0.00
2016,11,13,05,27,0.00
2016,11,13,05,28,0.00
2016,11,13,05,29,0.00
2016,11,13,05,30,0.00
2016,11,13,05,31,0.00
2016,11,13,05,32,0.00
2016,11,13,05,33,0.00
2016,11,13,05,34,0.00
2016,11,13,05,35,0.00
2016,11,13,05,36,0.00
2016,11,13,05,37,0.00
2016,11,13,05,38,0.00
2016,11,13,05,39,0.00
2016,11,13,05,40,0.00
2016,11,13,05,41,0.00
2016,11,13,05,42,0.00
2016,11,13,05,43,0.00
2016,11,13,05,44,0.00
2016,11,13,05,45,0.00
2016,11,13,05,46,0.00
2016,11,13,05,47,0.00
2016,11,13,05,48,0.00
2016,11,13,05,49,0.00
2016,11,13,05,50,0.00
2016,11,13,05,51,0.00
2016,11,13,05,52,0.00
2016,11,13,05,53,0.00
2016,11,13,05,54,0.00
2016,11,13,05,55,0.00
2016,11,13,05,56,0.00
2016,11,13,05,57,0.00
2016,11,13,05,58,0.00
2016,11,13,05,59,0.00
2016,11,13,06,00,0.00
2016,11,13,06,01,0.00
2016,11,13,06,02,0.00
2016,11,13,06,03,0.00
2016,11,13,06,04,0.00
2016,11,13,06,05,0.00
2016,11,13,06,06,0.00
2016,11,13,06,07,0.00
2016,11,13,06,08,0.00
2016,11,13,06,09,0.00
2016,11,13,06,10,0.00
2016,11,13,06,11,0.00
2016,11,13,06,12,0.00
2016,11,13,06,13,0.00
2016,11,13,06,14,0.00
2016,11,13,06,15,0.00
2016,11,13,06,16,0.00
2016,11,13,06,17,0.00
2016,11,13,06,18,0.00
2016,11,13,06,19,0.00
2016,11,13,06,20,0.00
2016,11,13,06,21,0.00
2016,11,13,06,22,0.00
2016,11,13,06,23,0.00
2016,11,13,06,24,0.00
2016,11,13,06,25,0.00
2016,11,13,06,26,0.00
2016,11,13,06,27,0.00
2016,11,13,06,28,0.00
2016,11,13,06,29,0.00
2016,11,13,06,30,0.00
2016,11,13,06,31,0.00
2016,11,13,06,32,0.00
2016,11,13,06,33,0.00
2016,11,13,06,34,0.00
2016,11,13,06,35,0.00
2016,11,13,06,36,0.00
2016,11,13,06,37,0.00
2016,11,13,06,38,0.00
2016,11,13,06,39,0.00
2016,11,13,06,40,0.00
2016,11,13,06,41,0.00
2016,11,13,06,42,0.00
2016,11,13,06,43,0.00
2016,11,13,06,44,0.00
2016,11,13,06,45,0.00
2016,11,13,06,46,0.00
2016,11,13,06,47,0.00
2016,11,13,06,48,0.00
2016,11,13,06,49,0.00
2016,11,13,06,50,0.00
2016,11,13,06,51,0.00
2016,11,13,06,52,0.00
2016,11,13,06,53,0.00
2016,11,13,06,54,0.00
2016,11,13,06,55,0.00
2016,11,13,06,56,0.00
2016,11,13,06,57,0.00
2016,11,13,06,58,0.00
2016,11,13,06,59,0.00
2016,11,13,07,00,0.00
2016,11,13,07,01,0.00
2016,11,13,07,02,0.00
2016,11,13,07,03,0.00
2016,11,13,07,04,0.00
2016,11,13,07,05,0.00
2016,11,13,07,06,0.00
2016,11,13,07,07,0.00
2016,11,13,07,08,0.00
2016,11,13,07,09,0.00
2016,11,13,07,10,0.00
2016,11,13,07,11,0.00
2016,11,13,07,12,0.00
2016,11,13,07,13,0.00
2016,11,13,07,14,0.00
2016,11,13,07,15,0.00
2016,11,13,07,16,0.00
2016,11,13,07,17,0.00
2016,11,13,07,18,0.00
2016,11,13,07,19,0.00
2016,11,13,07,20,0.00
2016,11,13,07,21,0.00
2016,11,13,07,22,0.00
2016,11,13,07,23,0.00
2016,11,13,07,24,0.00
2016,11,13,07,25,0.00
2016,11,13,07,26,0.00
2016,11,13,07,27,0.00
2016,11,13,07,28,0.00
2016,11,13,07,29,0.00
2016,11,13,07,30,0.00
2016,11,13,07,31,0.00
2016,11,13,07,32,0.00
2016,11,13,07,33,0.00
2016,11,13,07,34,0.00
2016,11,13,07,35,0.00
2016,11,13,07,36,0.00
2016,11,13,07,37,0.00
2016,11,13,07,38,0.00
2016,11,13,07,39,0.00
2016,11,13,07,40,0.00
2016,11,13,07,41,0.00
2016,11,13,07,42,0.00
2016,11,13,07,43,0.00
2016,11,13,07,44,0.00
2016,11,13,07,45,0.00
2016,11,13,07,46,0.00
2016,11,13,07,47,0.00
2016,11,13,07,48,0.00
2016,11,13,07,49,0.00
2016,11,13,07,50,0.00
2016,11,13,07,51,1.00
2016,11,13,07,52,5.00
2016,11,13,07,53,5.00
2016,11,13,07,54,5.00
2016,11,13,07,55,5.00
2016,11,13,07,56,5.00
2016,11,13,07,57,5.00
2016,11,13,07,58,5.00
2016,11,13,07,59,5.00
2016,11,13,08,00,6.90
2016,11,13,08,01,7.00
2016,11,13,08,02,7.00
2016,11,13,08,03,7.00
2016,11,13,08,04,7.70
2016,11,13,08,05,9.00
2016,11,13,08,06,9.00
2016,11,13,08,07,9.00
2016,11,13,08,08,9.00
2016,11,13,08,09,9.00
2016,11,13,08,10,9.00
2016,11,13,08,11,9.10
2016,11,13,08,12,10.70
2016,11,13,08,13,9.00
2016,11,13,08,14,9.60
2016,11,13,08,15,11.00
2016,11,13,08,16,11.00
2016,11,13,08,17,11.60
2016,11,13,08,18,12.00
2016,11,13,08,19,12.00
2016,11,13,08,20,12.00
2016,11,13,08,21,13.70
2016,11,13,08,22,12.10
2016,11,13,08,23,12.00
2016,11,13,08,24,12.00
2016,11,13,08,25,12.00
2016,11,13,08,26,12.00
2016,11,13,08,27,12.00
2016,11,13,08,28,12.00
2016,11,13,08,29,12.00
2016,11,13,08,30,12.00
2016,11,13,08,31,12.00
2016,11,13,08,32,12.00
2016,11,13,08,33,12.00
2016,11,13,08,34,12.00
2016,11,13,08,35,12.00
2016,11,13,08,36,12.60
2016,11,13,08,37,14.00
2016,11,13,08,38,14.00
2016,11,13,08,39,15.00
2016,11,13,08,40,16.00
2016,11,13,08,41,16.00
2016,11,13,08,42,16.00
2016,11,13,08,43,16.00
2016,11,13,08,44,18.90
2016,11,13,08,45,18.90
2016,11,13,08,46,18.00
2016,11,13,08,47,18.30
2016,11,13,08,48,19.00
2016,11,13,08,49,19.90
2016,11,13,08,50,23.20
2016,11,13,08,51,25.60
2016,11,13,08,52,26.00
2016,11,13,08,53,27.60
2016,11,13,08,54,25.50
2016,11,13,08,55,26.00
2016,11,13,08,56,25.50
2016,11,13,08,57,21.00
2016,11,13,08,58,20.40
2016,11,13,08,59,19.00
2016,11,13,09,00,18.50
2016,11,13,09,01,19.60
2016,11,13,09,02,21.00
2016,11,13,09,03,22.40
2016,11,13,09,04,27.00
2016,11,13,09,05,29.70
2016,11,13,09,06,29.90
2016,11,13,09,07,28.00
2016,11,13,09,08,28.00
2016,11,13,09,09,28.00
2016,11,13,09,10,28.00
2016,11,13,09,11,28.00
2016,11,13,09,12,29.10
2016,11,13,09,13,31.80
2016,11,13,09,14,32.30
2016,11,13,09,15,32.00
2016,11,13,09,16,28.60
2016,11,13,09,17,26.10
2016,11,13,09,18,24.80
2016,11,13,09,19,23.00
2016,11,13,09,20,22.40
2016,11,13,09,21,24.10
2016,11,13,09,22,30.00
2016,11,13,09,23,35.00
2016,11,13,09,24,37.80
2016,11,13,09,25,44.00
2016,11,13,09,26,41.40
2016,11,13,09,27,37.50
2016,11,13,09,28,39.80
2016,11,13,09,29,39.10
2016,11,13,09,30,39.80
2016,11,13,09,31,39.00
2016,11,13,09,32,41.50
2016,11,13,09,33,46.00
2016,11,13,09,34,42.70
2016,11,13,09,35,46.90
2016,11,13,09,36,49.60
2016,11,13,09,37,46.60
2016,11,13,09,38,46.80
2016,11,13,09,39,49.00
2016,11,13,09,40,50.10
2016,11,13,09,41,44.40
2016,11,13,09,42,52.50
2016,11,13,09,43,45.40
2016,11,13,09,44,39.50
2016,11,13,09,45,34.00
2016,11,13,09,46,33.00
2016,11,13,09,47,32.90
2016,11,13,09,48,32.80
2016,11,13,09,49,34.70
2016,11,13,09,50,33.30
2016,11,13,09,51,36.40
2016,11,13,09,52,33.40
2016,11,13,09,53,35.00
2016,11,13,09,54,34.30
2016,11,13,09,55,34.80
2016,11,13,09,56,38.10
2016,11,13,09,57,39.00
2016,11,13,09,58,34.80
2016,11,13,09,59,34.60
2016,11,13,10,00,39.20
2016,11,13,10,01,43.70
2016,11,13,10,02,41.70
2016,11,13,10,03,39.00
2016,11,13,10,04,37.80
2016,11,13,10,05,34.30
2016,11,13,10,06,32.50
2016,11,13,10,07,32.00
2016,11,13,10,08,29.60
2016,11,13,10,09,29.40
2016,11,13,10,10,30.00
2016,11,13,10,11,30.00
2016,11,13,10,12,34.70
2016,11,13,10,13,33.00
2016,11,13,10,14,33.40
2016,11,13,10,15,34.50
2016,11,13,10,16,34.40
2016,11,13,10,17,38.30
2016,11,13,10,18,41.10
2016,11,13,10,19,40.80
2016,11,13,10,20,40.00
2016,11,13,10,21,39.20
2016,11,13,10,22,41.50
2016,11,13,10,23,47.00
2016,11,13,10,24,50.60
2016,11,13,10,25,45.90
2016,11,13,10,26,38.50
2016,11,13,10,27,36.40
2016,11,13,10,28,39.00
2016,11,13,10,29,36.00
2016,11,13,10,30,28.80
2016,11,13,10,31,25.30
2016,11,13,10,32,23.40
2016,11,13,10,33,29.00
2016,11,13,10,34,26.20
2016,11,13,10,35,26.20
2016,11,13,10,36,29.00
2016,11,13,10,37,35.50
2016,11,13,10,38,49.30
2016,11,13,10,39,62.00
2016,11,13,10,40,55.70
2016,11,13,10,41,47.80
2016,11,13,10,42,48.10
2016,11,13,10,43,46.70
2016,11,13,10,44,44.20
2016,11,13,10,45,50.60
2016,11,13,10,46,55.10
2016,11,13,10,47,61.20
2016,11,13,10,48,53.80
2016,11,13,10,49,42.20
2016,11,13,10,50,39.00
2016,11,13,10,51,43.00
2016,11,13,10,52,48.30
2016,11,13,10,53,46.90
2016,11,13,10,54,50.00
2016,11,13,10,55,51.00
2016,11,13,10,56,48.70
2016,11,13,10,57,40.40
2016,11,13,10,58,47.20
2016,11,13,10,59,61.50
2016,11,13,11,00,64.30
2016,11,13,11,01,59.80
2016,11,13,11,02,52.30
2016,11,13,11,03,47.80
2016,11,13,11,04,53.30
2016,11,13,11,05,50.80
2016,11,13,11,06,47.30
2016,11,13,11,07,48.50
2016,11,13,11,08,40.70
2016,11,13,11,09,46.40
2016,11,13,11,10,43.40
2016,11,13,11,11,41.00
2016,11,13,11,12,39.00
2016,11,13,11,13,39.00
2016,11,13,11,14,39.60
2016,11,13,11,15,41.30
2016,11,13,11,16,40.40
2016,11,13,11,17,35.80
2016,11,13,11,18,32.20
2016,11,13,11,19,32.50
2016,11,13,11,20,30.40
2016,11,13,11,21,32.30
2016,11,13,11,22,37.40
2016,11,13,11,23,47.20
2016,11,13,11,24,48.20
2016,11,13,11,25,49.20
2016,11,13,11,26,49.60
2016,11,13,11,27,54.60
2016,11,13,11,28,62.00
2016,11,13,11,29,62.10
2016,11,13,11,30,44.00
2016,11,13,11,31,46.00
2016,11,13,11,32,52.50
2016,11,13,11,33,47.20
2016,11,13,11,34,46.90
2016,11,13,11,35,49.00
2016,11,13,11,36,48.20
2016,11,13,11,37,44.10
2016,11,13,11,38,54.80
2016,11,13,11,39,62.20
2016,11,13,11,40,75.80
2016,11,13,11,41,68.50
2016,11,13,11,42,74.00
2016,11,13,11,43,58.10
2016,11,13,11,44,44.50
2016,11,13,11,45,38.70
2016,11,13,11,46,37.00
2016,11,13,11,47,35.80
2016,11,13,11,48,38.50
2016,11,13,11,49,41.60
2016,11,13,11,50,46.20
2016,11,13,11,51,45.80
2016,11,13,11,52,40.00
2016,11,13,11,53,40.40
2016,11,13,11,54,44.70
2016,11,13,11,55,53.50
2016,11,13,11,56,63.10
2016,11,13,11,57,80.00
2016,11,13,11,58,94.80
2016,11,13,11,59,123.30
2016,11,13,12,00,122.00
2016,11,13,12,01,111.70
2016,11,13,12,02,102.90
2016,11,13,12,03,74.60
2016,11,13,12,04,60.80
2016,11,13,12,05,58.70
2016,11,13,12,06,63.00
2016,11,13,12,07,60.80
2016,11,13,12,08,57.50
2016,11,13,12,09,46.70
2016,11,13,12,10,38.50
2016,11,13,12,11,39.40
2016,11,13,12,12,45.10
2016,11,13,12,13,46.00
2016,11,13,12,14,51.70
2016,11,13,12,15,57.10
2016,11,13,12,16,64.50
2016,11,13,12,17,69.00
2016,11,13,12,18,74.40
2016,11,13,12,19,89.40
2016,11,13,12,20,101.10
2016,11,13,12,21,110.10
2016,11,13,12,22,106.50
2016,11,13,12,23,92.90
2016,11,13,12,24,92.90
2016,11,13,12,25,92.00
2016,11,13,12,26,82.60
2016,11,13,12,27,77.00
2016,11,13,12,28,65.00
2016,11,13,12,29,67.20
2016,11,13,12,30,68.40
2016,11,13,12,31,68.30
2016,11,13,12,32,61.70
2016,11,13,12,33,61.00
2016,11,13,12,34,60.30
2016,11,13,12,35,60.50
2016,11,13,12,36,68.40
2016,11,13,12,37,65.80
2016,11,13,12,38,85.40
2016,11,13,12,39,104.70
2016,11,13,12,40,98.10
2016,11,13,12,41,98.50
2016,11,13,12,42,101.90
2016,11,13,12,43,92.40
2016,11,13,12,44,90.00
2016,11,13,12,45,90.80
2016,11,13,12,46,106.50
2016,11,13,12,47,116.20
2016,11,13,12,48,139.20
2016,11,13,12,49,167.60
2016,11,13,12,50,170.20
2016,11,13,12,51,169.80
2016,11,13,12,52,169.00
2016,11,13,12,53,165.10
2016,11,13,12,54,157.80
2016,11,13,12,55,159.00
2016,11,13,12,56,172.60
2016,11,13,12,57,172.20
2016,11,13,12,58,175.60
2016,11,13,12,59,193.20
2016,11,13,13,00,206.90
2016,11,13,13,01,207.00
2016,11,13,13,02,206.20
2016,11,13,13,03,210.10
2016,11,13,13,04,211.00
2016,11,13,13,05,201.90
2016,11,13,13,06,182.50
2016,11,13,13,07,172.10
2016,11,13,13,08,154.40
2016,11,13,13,09,144.10
2016,11,13,13,10,121.20
2016,11,13,13,11,97.70
2016,11,13,13,12,97.30
2016,11,13,13,13,89.00
2016,11,13,13,14,73.20
2016,11,13,13,15,73.60
2016,11,13,13,16,81.60
2016,11,13,13,17,84.00
2016,11,13,13,18,81.40
2016,11,13,13,19,56.80
2016,11,13,13,20,45.40
2016,11,13,13,21,40.80
2016,11,13,13,22,45.50
2016,11,13,13,23,57.80
2016,11,13,13,24,80.30
2016,11,13,13,25,88.00
2016,11,13,13,26,89.90
2016,11,13,13,27,90.30
2016,11,13,13,28,81.30
2016,11,13,13,29,70.40
2016,11,13,13,30,71.30
2016,11,13,13,31,99.90
2016,11,13,13,32,112.00
2016,11,13,13,33,119.20
2016,11,13,13,34,130.40
2016,11,13,13,35,132.80
2016,11,13,13,36,126.50
2016,11,13,13,37,118.80
2016,11,13,13,38,124.40
2016,11,13,13,39,114.40
2016,11,13,13,40,105.90
2016,11,13,13,41,86.90
2016,11,13,13,42,86.00
2016,11,13,13,43,84.90
2016,11,13,13,44,77.20
2016,11,13,13,45,67.80
2016,11,13,13,46,54.00
2016,11,13,13,47,40.20
2016,11,13,13,48,33.90
2016,11,13,13,49,29.50
2016,11,13,13,50,29.60
2016,11,13,13,51,30.00
2016,11,13,13,52,26.10
2016,11,13,13,53,24.40
2016,11,13,13,54,22.00
2016,11,13,13,55,25.70
2016,11,13,13,56,25.00
2016,11,13,13,57,24.10
2016,11,13,13,58,22.00
2016,11,13,13,59,23.50
2016,11,13,14,00,25.70
2016,11,13,14,01,29.00
2016,11,13,14,02,30.00
2016,11,13,14,03,32.80
2016,11,13,14,04,32.00
2016,11,13,14,05,31.20
2016,11,13,14,06,27.40
2016,11,13,14,07,24.20
2016,11,13,14,08,21.90
2016,11,13,14,09,22.00
2016,11,13,14,10,19.20
2016,11,13,14,11,18.70
2016,11,13,14,12,20.50
2016,11,13,14,13,27.00
2016,11,13,14,14,23.40
2016,11,13,14,15,25.70
2016,11,13,14,16,23.00
2016,11,13,14,17,21.80
2016,11,13,14,18,18.60
2016,11,13,14,19,19.30
2016,11,13,14,20,18.40
2016,11,13,14,21,16.00
2016,11,13,14,22,17.40
2016,11,13,14,23,15.00
2016,11,13,14,24,15.80
2016,11,13,14,25,18.70
2016,11,13,14,26,15.80
2016,11,13,14,27,14.40
2016,11,13,14,28,16.50
2016,11,13,14,29,20.70
2016,11,13,14,30,23.10
2016,11,13,14,31,23.00
2016,11,13,14,32,23.80
2016,11,13,14,33,21.60
2016,11,13,14,34,22.50
2016,11,13,14,35,17.00
2016,11,13,14,36,22.60
2016,11,13,14,37,22.80
2016,11,13,14,38,21.40
2016,11,13,14,39,23.60
2016,11,13,14,40,24.20
2016,11,13,14,41,22.10
2016,11,13,14,42,19.50
2016,11,13,14,43,19.80
2016,11,13,14,44,19.60
2016,11,13,14,45,20.50
2016,11,13,14,46,22.70
2016,11,13,14,47,27.80
2016,11,13,14,48,29.80
2016,11,13,14,49,26.60
2016,11,13,14,50,21.50
2016,11,13,14,51,23.00
2016,11,13,14,52,23.80
2016,11,13,14,53,24.00
2016,11,13,14,54,20.50
2016,11,13,14,55,20.40
2016,11,13,14,56,17.20
2016,11,13,14,57,14.30
2016,11,13,14,58,11.10
2016,11,13,14,59,10.80
2016,11,13,15,00,9.60
2016,11,13,15,01,12.00
2016,11,13,15,02,12.00
2016,11,13,15,03,12.00
2016,11,13,15,04,13.10
2016,11,13,15,05,12.80
2016,11,13,15,06,12.00
2016,11,13,15,07,12.00
2016,11,13,15,08,11.10
2016,11,13,15,09,11.00
2016,11,13,15,10,11.10
2016,11,13,15,11,12.00
2016,11,13,15,12,12.00
2016,11,13,15,13,12.00
2016,11,13,15,14,12.90
2016,11,13,15,15,14.00
2016,11,13,15,16,14.00
2016,11,13,15,17,12.60
2016,11,13,15,18,11.20
2016,11,13,15,19,9.20
2016,11,13,15,20,7.10
2016,11,13,15,21,7.00
2016,11,13,15,22,6.60
2016,11,13,15,23,5.00
2016,11,13,15,24,5.00
2016,11,13,15,25,5.00
2016,11,13,15,26,6.00
2016,11,13,15,27,7.00
2016,11,13,15,28,7.00
2016,11,13,15,29,5.50
2016,11,13,15,30,5.00
2016,11,13,15,31,6.80
2016,11,13,15,32,7.00
2016,11,13,15,33,7.00
2016,11,13,15,34,7.00
2016,11,13,15,35,7.00
2016,11,13,15,36,6.10
2016,11,13,15,37,5.00
2016,11,13,15,38,5.00
2016,11,13,15,39,1.80
2016,11,13,15,40,0.00
2016,11,13,15,41,0.00
2016,11,13,15,42,0.00
2016,11,13,15,43,4.50
2016,11,13,15,44,0.00
2016,11,13,15,45,0.00
2016,11,13,15,46,0.00
2016,11,13,15,47,0.00
2016,11,13,15,48,0.00
2016,11,13,15,49,0.00
2016,11,13,15,50,0.00
2016,11,13,15,51,0.00
2016,11,13,15,52,0.00
2016,11,13,15,53,0.00
2016,11,13,15,54,0.00
2016,11,13,15,55,0.00
2016,11,13,15,56,0.00
2016,11,13,15,57,0.00
2016,11,13,15,58,2.40
2016,11,13,15,59,5.00
2016,11,13,16,00,2.00
2016,11,13,16,01,3.50
2016,11,13,16,02,1.20
2016,11,13,16,03,0.00
2016,11,13,16,04,4.80
2016,11,13,16,05,5.00
2016,11,13,16,06,4.20
2016,11,13,16,07,0.00
2016,11,13,16,08,0.00
2016,11,13,16,09,0.00
2016,11,13,16,10,0.00
2016,11,13,16,11,0.00
2016,11,13,16,12,0.00
2016,11,13,16,13,0.00
2016,11,13,16,14,0.00
2016,11,13,16,15,0.00
2016,11,13,16,16,0.00
2016,11,13,16,17,0.00
2016,11,13,16,18,0.00
2016,11,13,16,19,0.00
2016,11,13,16,20,0.00
2016,11,13,16,21,0.00
2016,11,13,16,22,0.00
2016,11,13,16,23,0.00
2016,11,13,16,24,0.00
2016,11,13,16,25,0.00
2016,11,13,16,26,0.00
2016,11,13,16,27,0.00
2016,11,13,16,28,0.00
2016,11,13,16,29,0.00
2016,11,13,16,30,0.00
2016,11,13,16,31,0.00
2016,11,13,16,32,0.00
2016,11,13,16,33,0.00
2016,11,13,16,34,0.00
2016,11,13,16,35,0.00
2016,11,13,16,36,0.00
2016,11,13,16,37,0.00
2016,11,13,16,38,0.00
2016,11,13,16,39,0.00
2016,11,13,16,40,0.00
2016,11,13,16,41,0.00
2016,11,13,16,42,0.00
2016,11,13,16,43,0.00
2016,11,13,16,44,0.00
2016,11,13,16,45,0.00
2016,11,13,16,46,0.00
2016,11,13,16,47,0.00
2016,11,13,16,48,0.00
2016,11,13,16,49,0.00
2016,11,13,16,50,0.00
2016,11,13,16,51,0.00
2016,11,13,16,52,0.00
2016,11,13,16,53,0.00
2016,11,13,16,54,0.00
2016,11,13,16,55,0.00
2016,11,13,16,56,0.00
2016,11,13,16,57,0.00
2016,11,13,16,58,0.00
2016,11,13,16,59,0.00
2016,11,13,17,00,0.00
2016,11,13,17,01,0.00
2016,11,13,17,02,0.00
2016,11,13,17,03,0.00
2016,11,13,17,04,0.00
2016,11,13,17,05,0.00
2016,11,13,17,06,0.00
2016,11,13,17,07,0.00
2016,11,13,17,08,0.00
2016,11,13,17,09,0.00
2016,11,13,17,10,0.00
2016,11,13,17,11,0.00
2016,11,13,17,12,0.00
2016,11,13,17,13,0.00
2016,11,13,17,14,0.00
2016,11,13,17,15,0.00
2016,11,13,17,16,0.00
2016,11,13,17,17,0.00
2016,11,13,17,18,0.00
2016,11,13,17,19,0.00
2016,11,13,17,20,0.00
2016,11,13,17,21,0.00
2016,11,13,17,22,0.00
2016,11,13,17,23,0.00
2016,11,13,17,24,0.00
2016,11,13,17,25,0.00
2016,11,13,17,26,0.00
2016,11,13,17,27,0.00
2016,11,13,17,28,0.00
2016,11,13,17,29,0.00
2016,11,13,17,30,0.00
2016,11,13,17,31,0.00
2016,11,13,17,32,0.00
2016,11,13,17,33,0.00
2016,11,13,17,34,0.00
2016,11,13,17,35,0.00
2016,11,13,17,36,0.00
2016,11,13,17,37,0.00
2016,11,13,17,38,0.00
2016,11,13,17,39,0.00
2016,11,13,17,40,0.00
2016,11,13,17,41,0.00
2016,11,13,17,42,0.00
2016,11,13,17,43,0.00
2016,11,13,17,44,0.00
2016,11,13,17,45,0.00